Regional Weather Roundup
Issued by NWS Sterling, VA

Home | Current Version | Previous Version | Graphics & Text | Print | Product List | Glossary On
Versions: 1 2 3 4 5 6 7 8 9 10 11 12 13 14 15 16 17 18 19 20 21 22 23 24 25 26 27 28 29 30 31 32 33 34 35 36 37 38 39 40 41 42 43 44 45 46 47 48 49 50
000
ASUS41 KLWX 162110
RWRLWX

REGIONAL WEATHER ROUNDUP
NATIONAL WEATHER SERVICE BALTIMORE MD/WASHINGTON DC
500 PM EDT TUE SEP 16 2014

Note: "FAIR" indicates few or no clouds below 12,000 feet
with no significant weather and/or obstructions to visibility.
 TC=TEMPERATURE CELSIUS

 * =Non NWS site. Station does not report precipitation (e.g. rain,
    snow, etc.), thunder, or fog.

DCZ001-MDZ009-015-VAZ040>042-051-053>054-162200-
WASHINGTON METRO

CITY           SKY/WX    TMP DP  RH WIND       PRES   REMARKS
WASHINGTON NAT MOSUNNY   79  49  34 NW13      29.99F
DULLES         MOSUNNY   75  51  43 N8G21     30.00S
ANDREWS AFB    SUNNY     75  52  43 N10       29.99S
QUANTICO       MOSUNNY   77  51  40 N12       29.99F
COLLEGE PARK*  SUNNY     75  52  43 N8        29.99S
LEESBURG*      CLOUDY    73  54  49 N8        30.01F
GAITHERSBURG*  MOSUNNY   72  52  49 NW7       30.04S

$$

MDZ006>007-011-014-162200-
BALTIMORE METRO

CITY           SKY/WX    TMP DP  RH WIND       PRES   REMARKS
BWI AIRPORT    MOSUNNY   75  52  44 NW12      29.98F
MD SCIENCE CTR   N/A     74  52  46 MISG      29.99S
MARTIN STATE   MOSUNNY   75  55  50 NW8       30.00S
ANNAPOLIS      MOSUNNY   75  52  44 NW9       29.98S
FORT MEADE*    MOSUNNY   72  52  49 NW6       30.01S

$$

MDZ012-015-019>023-162200-
MARYLAND EASTERN SHORE

CITY           SKY/WX    TMP DP  RH WIND       PRES   REMARKS
OCEAN CITY     PTSUNNY   75  59  57 NE7       29.96S
SALISBURY      MOSUNNY   76  54  46 NW8       29.97S
BAY BRIDGE AP*   N/A     72  54  53 N5        29.99R
CAMBRIDGE*     MOSUNNY   77  54  44 NW7       29.97S
EASTON*        MOSUNNY   75  57  53 N7        30.02R

$$

MDZ017>025-162200-
SOUTHERN MARYLAND

CITY           SKY/WX    TMP DP  RH WIND       PRES   REMARKS
PATUXENT RIVER MOSUNNY   78  53  41 NW8       29.97S
ST INIGOES     CLOUDY    75  56  51 VRB3      29.97S
LEONARDTOWN*   SUNNY     75  50  41 NW5       29.99S

$$

MDZ003>005-162200-
NORTH CENTRAL MARYLAND

CITY           SKY/WX    TMP DP  RH WIND       PRES   REMARKS
FREDERICK*     PTSUNNY   75  52  43 N8        30.03S
HAGERSTOWN APT PTSUNNY   70  48  45 NW14      30.02S
WESTMINSTER*   CLOUDY    70  52  52 N7        30.02S

$$

MDZ501>502-162200-
WESTERN MARYLAND

CITY           SKY/WX    TMP DP  RH WIND       PRES   REMARKS
OAKLAND*       PTSUNNY   57  48  72 NW3       30.11R
CUMBERLAND*    MOSUNNY   72  43  35 NW6       30.08R

$$

VAZ025>031-162200-
SHENANDOAH VALLEY

CITY           SKY/WX    TMP DP  RH WIND       PRES   REMARKS
WINCHESTER*    PTSUNNY   73  45  35 N7        30.01S
STAUNTON*      MOSUNNY   76  51  42 N8        30.03S

$$

WVZ021-048>050-054>055-162200-
EASTERN WEST VIRGINIA PANHANDLE

CITY           SKY/WX    TMP DP  RH WIND       PRES   REMARKS
MARTINSBURG    PTSUNNY   73  47  39 N10       30.02S
PETERSBURG*    CLOUDY    71  46  41 W8        30.04S

$$

VAZ036>039-050-162200-
CENTRAL FOOTHILLS

CITY           SKY/WX    TMP DP  RH WIND       PRES   REMARKS
CHARLOTTESVILL SUNNY     77  55  46 N6        29.99S
ORANGE*        MOSUNNY   77  52  41 N8        30.01S

$$

VAZ055>057-162200-
NORTH AND CENTRAL PIEDMONT

CITY           SKY/WX    TMP DP  RH WIND       PRES   REMARKS
FREDERICKSBRG* MOSUNNY   79  53  40 N7        29.98S
STAFFORD*      SUNNY     76  53  43 N12       30.02F

$$

NCZ024-NYZ072-PAZ021-071-VAZ022-071-162200-
OTHER REGIONAL OBSERVATIONS

CITY           SKY/WX    TMP DP  RH WIND       PRES   REMARKS
NEW YORK CITY  CLOUDY    67  55  65 CALM      29.99S
PHILADELPHIA   PTSUNNY   72  52  49 NW5       29.98R
PITTSBURGH     MOSUNNY   65  48  54 W3        30.07F
ROANOKE        MOSUNNY   76  57  51 W7        30.02F
RICHMOND       PTSUNNY   78  60  53 NE9       29.97R
RALEIGH        MOSUNNY   81  63  54 NE5       29.96F

$$

ANZ530>537-162200-
MARINE OBSERVATIONS

STATION/POSITION TIME  TEMP    WIND        PRES
                       AIR SEA DIR/SP/G
                 (UTC) (F)     (DEG/KT/KT) (MB)
THOMAS PT LIGHT  2100   72 75   50/  8/  9 1016.1R
BALT KEY BRIDGE  2100   73     320/ 12/ 16 1015.2S
COVE POINT       2100   72      20/ 10/ 12 1014.9F
LEWISETTA        2100   75 75  340/  8/ 11 1014.6S
SOLOMONS ISLAND  2100      76                N/A
PINEY POINT      2100           10/  6/  7   N/A

$$



USA.gov is the U.S. government's official web portal to all federal, state and local government web resources and services.